Showing default

CAS500-1, 47932

Orbit data source: Space-Track

CAS500-1, 47932 is a payload satellite owned by KARI (KR) in SSO that was launched on Mon, 22 Mar 2021 UTC via a SOYUZ-2-1A launch vehicle from the Tyuratam Missile And Space Complex (TTMTR). Payload-class satellites include a variety of spacecraft equipped with specific instruments for various scientific and technological missions. These include communications satellites like Starlink; space stations such as the ISS; scientific satellites like the Hubble; Earth observation satellites from companies like Planet Labs, Umbra, and HawkEye 360; GPS; miniature CubeSats for education and research; and military/defense satellites.

Loading next visibility...
Identifier
47932, 2021-022A
Orbit
SSO
Country
Flag of UnknownUnknown / SKOR
Related business
Manufacturer
KAI
Mission
Operational Civil Imaging
Bus & Motor
CAS500, Unknown motor
Mass
~500 kg wet, ~480 kg dry
Launch date (UTC)
2021-03-22 (5 years ago)
Launch vehicle
SOYUZ-2-1A
Launch site
Tyuratam Missile And Space Complex (TTMTR)
Object type
Payload
Rocket body
Debris
Shape & HBR
Box + 4 Pan, 3.0 m
Radar Cross Section
11.517 m², Large (>1 m²)

Expand to show TLE details & history
Last TLE update: 16 hours ago

TLE from 16 hours ago
0 CAS500-1
1 47932U 21022A   25348.95608444  .00005979  00000-0  27840-3 0  9998
2 47932  97.4085 242.6883 0003930 194.7766 165.3355 15.20281387262777
Epoch: 2025-12-14T22:56Z
TLE epoch observation values (Epoch: 2025-12-14T22:56:45.695Z)
Latitude
-0.00004°
Longitude
174.63634°
Altitude
510.699 km
Speed
7.607 km/s
True Right ascension
16h 10m 45s
True Declination
0° 00' 00"
Sunlit
Object was in daylight at epoch
Visualization orbit readout
Latitude
Unknown
Longitude
Unknown
Altitude
Unknown
Speed
Unknown
Apparent Right ascension
Unknown
Apparent Declination
Unknown
Sunlit
N/A
Visualization observer readout
Local Sidereal Time
13:24:47
Azimuth
Unknown
Elevation
Unknown
Doppler factor
Unknown
Orbital elements
Apogee altitude
504.661 km
Perigee altitude
499.253 km
Semi-major axis
6,880.094 km
Eccentricity
0.00039
Inclination
97.4085°
RAAN
242.6883°
Arg. of periapsis
194.7766°
True anomaly
165.3469°
Mean anomaly
165.3355°
Eccentric anomaly
165.3412°
Mean motion
3.80322 °/min
Orbital period
94.66 mins
BSTAR
0.0002784
Loading maneuver chart data...
Computing Atmospheric mass density...
Loading historical data...
Loading historical data...
Loading historical data...
Loading historical data...
Loading historical data...
Loading historical data...
Loading historical data...

Documentation

Showing up to 5 results
|